Terug naar catalogus

FENGYUN 1C DEB

ActiefSSO
NORAD 30289·DEBRIS·🇨🇳 China

Gelanceerd May 10, 1999 vanaf Taiyuan Satellite Launch Center

Loading…

Volgende Passages (komende 24 uur)

TLE

VersSource: Space-Track

Epoch: Sep 14, 2026, 14:04 UTC

1 30289U 99025ZA  26257.58621416  .00003094  00000-0  12508-2 0  9996
2 30289  98.9292   4.7394 0035699 248.9445 238.3064 14.28255718 10086

Volg FENGYUN 1C DEB in realtime met AllMySat

Download on the App Store